Weather in Staroye Kreshcheno

Russia / Mari El Republic     56°48′00″N   47°59′55″E
temp.,
°C
wind,
m/s
gust,
m/s
humid.,
%
clouds,
%
prec.,
mm/h
press.,
hPa
HPBL,
m
27 february, sat
sat2700:00−13se61294100 5.3 999634
03:00−13ese51094100 7.4 998454
06:00−14e5993100 0.2 998463
09:00−14ene6993100 0.5 999485
12:00−12ne6989100 0.3 1001644
15:00−13nne6989100 0.4 1004659
18:00−14nne5119199 0.1 1005453
21:00−16n5119496 0.1 1007296
28 february, sun
sun2800:00−17n4109592 0.0 1007254
03:00−19n4109580 0.0 1009233
06:00−21n489760 0.0 1010187
09:00−18n469468 0.0 1010253
12:00−15n479166 0.0 1011373
15:00−13n478966 0.0 1013460
18:00−17n349588 0.0 101463
21:00−19n239767 0.0 101734
1 march, mon
mon100:00−21n23970 0.0 101822
03:00−22n23970 0.0 102024
06:00−23n22970 0.0 102120
09:00−19nnw11930 0.0 102297
12:00−13wsw128640 0.0 1021341
15:00−10sw248968 0.0 1020470
18:00−13ssw3796100 0.0 1018186
21:00−13ssw4996100 0.1 1016253
2 march, tue
tue200:00−11ssw51194100 0.1 1012355
03:00−8ssw61294100 0.8 1007481
06:00−6ssw61295100 1.5 1003553
09:00−2ssw51097100 2.7 1000490
12:000w48100100 1.8 998491
15:000wnw5998100 2.9 997636
18:00−1nw61297100 0.9 998737
21:00−2nnw71395100 2.9 999792
3 march, wed
wed300:00−3nnw61393100 0.4 1000705
03:00−5nnw51291100 0.6 1001474
06:00−7nw4109588 0.0 1002280
09:00−5nw599394 0.3 1004517
12:00−3nnw6991100 0.2 1005765
15:00−4nnw6986100 0.3 1007925
18:00−6nw499199 0.1 1008300
21:00−10wnw369481 0.1 1009110